www.pogodaiklimat.ru

Погода и климат >> Архив погоды >> Саудовская Аравия >> Rafha


ПОГОДА в Rafha

  • Прогноз погоды в Rafha
  • Монитор погоды в Rafha
  • Климат города

АРХИВ ПОГОДЫ в Rafha

Время (UTC), дата Ветер
(напр.,м/с)
 
Видим.   Явления Облачность Т
(С)
Тd
(С)
f
(%)
Тe
(С)
Тes
(С)
Комфортность P
(гПа)
Po
(гПа)
Тmin
(С)
Tmax
(С)
R
(мм)
R24
(мм)
S
(см)
06 8.12 З 2 10 км 4/0
[Ac trans]
+21.3 +10.0 48 +23 +25 комфорт 1016.3 965.8 +13.8
09 8.12 Ю 2 10 км ясно +24.9 +10.0 39 +26 +34 жарко 1015.7 965.1
12 8.12 З 3 10 км ясно +26.6 +9.0 33 +27 +30 жарко 1014.0 964.0
15 8.12 С 2 10 км ясно +21.7 +8.0 41 +23 +23 комфорт 1015.4 964.6
18 8.12 С 2 10 км ясно +18.2 +9.0 55 +19 +19 1016.6 966.0 +26.6
21 8.12 С 2 10 км ясно +17.1 +9.0 59 +18 +18 1016.7 966.3
00 9.12 С 3 10 км ясно +15.4 +8.0 61 +15 +15 1017.4 966.9
03 9.12 СЗ 1 10 км ясно +14.5 +7.0 61 +15 +15 1018.2 967.2
06 9.12 СЗ 2 10 км 5/0
[Ac trans]
+16.6 +8.0 57 +17 +19 1020.2 969.0 +14.1
09 9.12 С 3 10 км 5/0
[Ac trans]
+22.3 +5.0 32 +23 +27 комфорт 1018.5 967.8
12 9.12 С 4 10 км 8/4 1200 м
[Cu med, cong Ac As]
+21.4 +3.0 30 +21 +22 комфорт 1017.6 966.7
15 9.12 С 2 10 км 4/0
[Ac trans]
+20.7 +4.0 33 +22 +22 комфорт 1018.2 967.1
18 9.12 С 2 10 км ясно +18.3 +4.0 39 +19 +19 1019.3 968.1 +22.8
21 9.12 З 1 10 км ясно +16.6 +7.0 53 +18 +18 1019.0 968.2
00 10.12 штиль 0 10 км ясно +14.6 +6.0 56 +14 +14 1018.6 967.6
03 10.12 СЗ 2 10 км ясно +14.7 +7.0 60 +15 +15 1018.0 967.0
06 10.12 С 2 10 км 8/6 1200 м
[Sc Ac As]
+17.1 +8.0 55 +17 +18 1019.2 968.1 +14.3
09 10.12 В 2 10 км 6/4 1200 м
[Cu med, cong Ac As]
+25.2 +6.0 29 +25 +29 комфорт 1017.4 966.9
12 10.12 С 4 10 км 6/4 1200 м
[Cu med, cong Ac As]
+23.4 +7.0 35 +24 +25 комфорт 1016.7 965.9
15 10.12 СВ 3 10 км 4/0
[Ac trans]
+22.1 +7.0 38 +23 +23 комфорт 1017.9 967.0
18 10.12 СВ 3 10 км ясно +21.0 +8.0 43 +23 +23 комфорт 1019.5 968.6 +26.3
21 10.12 ЮВ 2 10 км ясно +16.5 +8.0 57 +17 +17 1019.2 968.6
00 11.12 штиль 0 10 км ясно +15.1 +7.0 58 +15 +15 1019.5 968.6
03 11.12 штиль 0 10 км ясно +14.2 +7.0 62 +14 +14 1020.1 969.0
06 11.12 Ю 2 10 км 5/0
[Ac trans]
+16.7 +10.0 65 +17 +19 1021.7 970.7 +13.6
09 11.12 ЮВ 4 10 км ясно +19.9 +10.0 53 +21 +27 комфорт 1020.5 969.4
12 11.12 Ю 3 10 км ясно +22.8 +9.0 41 +24 +27 комфорт 1018.7 967.8
15 11.12 В 3 10 км ясно +20.6 +10.0 51 +23 +23 комфорт 1020.0 968.8
18 11.12 ЮВ 3 10 км 4/0
[Ac trans]
+17.2 +10.0 63 +17 +17 1021.1 969.8 +23.1
21 11.12 ЮВ 3 10 км 4/0
[Ac trans]
+14.5 +9.0 70 +14 +14 1020.9 969.6
00 12.12 Ю 4 8000 м мгла 4/0
[Ac trans]
+12.9 +9.0 77 +11 +11 1019.9 968.8
03 12.12 Ю 5 10 км 4/0
[Ac trans]
+11.9 +8.0 77 +10 +10 1019.8 968.4
06 12.12 Ю 5 10 км ясно +15.5 +10.0 70 +14 +16 1020.6 969.4 +11.6
09 12.12 Ю 6 10 км ясно +23.0 +11.0 47 +25 +29 комфорт 1018.6 967.7
12 12.12 Ю 3 10 км ясно +25.9 +7.0 30 +26 +29 жарко 1017.6 966.8
15 12.12 ЮВ 3 10 км ясно +20.8 +7.0 41 +22 +22 комфорт 1018.2 966.9
18 12.12 ЮВ 4 10 км ясно +17.2 +8.0 55 +17 +17 1018.8 967.5 +26.8
21 12.12 ЮВ 5 10 км ясно +15.4 +10.0 70 +14 +14 1018.2 967.4
00 13.12 Ю 4 10 км ясно +14.9 +10.0 72 +14 +14 1017.8 967.2
03 13.12 З 2 10 км 4/0
[Ac trans]
+19.5 +11.0 58 +21 +21 комфорт 1019.0 968.3
06 13.12 СЗ 5 10 км 5/0
[Ac lent]
+17.4 +10.0 62 +17 +18 1021.4 970.1 +14.6
09 13.12 С 6 10 км ясно +20.9 +9.0 46 +22 +25 комфорт 1020.6 969.5
12 13.12 С 7 10 км ясно +21.4 +9.0 45 +23 +24 комфорт 1019.7 968.6
15 13.12 С 2 10 км ясно +22.4 +6.0 35 +23 +23 комфорт 1020.4 969.8
18 13.12 С 2 10 км ясно +19.2 +7.0 45 +20 +20 1022.4 971.2 +22.9
21 13.12 С 2 10 км ясно +18.7 +8.0 50 +20 +20 1023.2 972.2
00 14.12 СЗ 1 10 км ясно +16.5 +7.0 53 +17 +17 1023.4 972.3
03 14.12 СЗ 1 10 км ясно +15.0 +5.0 51 +16 +16 1024.0 972.8
06 14.12 штиль 0 10 км ясно +20.7 +7.0 41 +21 +25 комфорт 1025.0 974.0 +14.2
09 14.12 СВ 3 10 км ясно +23.4 +10.0 43 +25 +32 комфорт 1023.6 972.8
12 14.12 С 5 10 км ясно +22.2 +9.0 43 +24 +26 комфорт 1023.3 972.3
15 14.12 СВ 4 10 км ясно +20.2 +6.0 40 +21 +21 комфорт 1023.7 972.4
18 14.12 СВ 4 10 км 6/6 1200 м
[Sc diur, vesp]
+19.5 +5.0 38 +20 +20 1024.7 973.7 +23.4
21 14.12 СВ 4 10 км 6/6 1200 м
[Sc diur, vesp]
+17.9 +6.0 46 +18 +18 1024.5 973.6
00 15.12 СВ 3 10 км 6/6 1200 м
[Sc diur, vesp]
+18.1 +5.0 42 +18 +18 1024.6 973.6

 

Местоположение метеостанции Rafha (Саудовская Аравия): широта 29.62 долгота 43.48 высота над уровнем моря 444 м.

В архиве по умолчанию представлена погода в Rafha за последнюю неделю. Архивные данные за месяц целиком и за предыдущие месяцы, начиная с января 2011 года, Вы можете получить, выбрав интересующий диапазон дат из раскрывающегося списка и нажав кнопку "Ввод!".


*Определитесь, кто Вы:
робот инопланетянин человек

Внимание! Время в таблицах - всемирное. Для получения местного времени необходимо прибавить поправку, которая в Rafha равна 3 ч.

Смотрите также архив погоды в соседних городах и на ближайших метеорологических станциях:

Погода в Samawah (Ирак) (254 км)
Погода в Arar (Саудовская Аравия) (267 км)
Погода в Hafr Al-Batin (Саудовская Аравия) (274 км)
Погода в Najaf (Ирак) (274 км)
Погода в Al-Nukhib (Ирак) (293 км)
Погода в Al Qaisumah (Саудовская Аравия) (296 км)
Погода в Diwaniya (Ирак) (299 км)
Погода в Dawadmi (Саудовская Аравия) (300 км)
Погода в Hail (Саудовская Аравия) (300 км)
Погода в Nasiriya (Ирак) (310 км)

Пояснения к столбцам:

Ветер - указаны скорость ветра в м/с - средняя за 10 мин, порывы в срок и между сроками (в фигурных скобках) и направление, откуда дует ветер: С - северный, СВ - северо-восточный, В - восточный, ЮВ - юго-восточный, Ю - южный, ЮЗ - юго-западный, З - западный, СЗ - северо-западный.
Видимость - горизонтальная дальность видимости в метрах или километрах. При видимости от 1 до 10 км при отсутствии осадков обычно наблюдается дымка, при ухудшении видимости до 1 км и менее - туман. В сухую погоду видимость может ухудшаться дымом, пылью или мглою.
Явления - указаны атмосферные явления, наблюдавшиеся в срок или в последний час перед сроком; фигурными скобками обозначены явления, наблюдавшиеся между сроками (за 1-3 часа до срока); квадратными скобками обозначены град или гололедные отложения с указанием их диаметра в мм.
Облачность - указаны через наклонную черту общая и нижняя облачность в баллах и высота нижней границы облаков в метрах; квадратными скобками обозначены формы облаков: Ci - перистые, Cs - перисто-слоистые, Cc - перисто-кучевые, Ac - высококучевые, As - высокослоистые, Sc - слоисто-кучевые, Ns - слоисто-дождевые, Cu - кучевые, Cb - кучево-дождевые. Подробнее классификацию облаков см. в Атласе облаков (PDF).
T - Температура воздуха - температура, измеренная на высоте 2 м над землей.
Td - Температура точки росы - температура, при понижении до которой содержащийся в воздухе водяной пар достигнет насыщения.
f - Относительная влажность воздуха - влажноcть воздуха, измеренная на высоте 2 м над землей.
Te - Эффективная температура - температура, которую ощущает одетый по сезону человек в тени. Характеристика душности погоды. При расчете учитывается влияние влажности воздуха и скорости ветра на теплоощущения человека.
Tes - Эффективная температура на солнце - температура, которую ощущает человек, с поправкой на солнечный нагрев. Характеристика знойности погоды. Зависит от высоты солнца над горизонтом, облачности и скорости ветра. Ночью, в пасмурную погоду, а также при ветре 12 м/с и более поправка равна нулю.
P - Атмосферное давление - приведенное к уровню моря атмосферное давление.
Po - Атмосферное давление - измеренное на уровне метеостанции атмосферное давление.
Tmin - Минимальная температура - минимум температуры воздуха на высоте 2 м над землей.
Tmax - Максимальная температура - максимум температуры воздуха на высоте 2 м над землей.
R - Количество осадков - Количество выпавших осадков за период времени, мм. При наведении курсора мыши на число - период времени, за который выпало указанное количество осадков.
R24 - Количество осадков - Количество выпавших осадков за 24 часа, мм.
S - Снежный покров - Высота снежного покрова, см. При наведении курсора мыши на число - состояние снежного покрова и степень покрытия местности в баллах.